Back to catalog

STARLINK-5288

AliveCommunicationsVLEO
NORAD 55307·PAYLOAD·🇺🇸 United States

Launched Jan 19, 2023 from Vandenberg Space Force Base

Loading…

Next Passes (next 24 hours)

TLE

FreshSource: CelesTrak SupGP

Epoch: Sep 14, 2026, 21:38 UTC

1 55307C 23010AQ  26257.90187500  .00047960  00000+0  40186-2 0  2571
2 55307  69.9989 247.5405 0003862 266.6921 339.6455 14.98311036    12

Track STARLINK-5288 in real time with AllMySat

Download on the App Store